{"data":{"norad_id":61898,"epoch":"2026-09-22T22:13:15.419424Z","epoch_age_seconds":92524,"freshness":"FRESH","line1":"1 61898U 24205E   26265.92587291  .00004610  00000+0  26120-3 0  9993","line2":"2 61898  97.4038 333.5903 0054972  26.2167 334.1828 15.12192462102984","mean_motion":15.12192462,"eccentricity":0.0054972,"inclination_deg":97.4038,"raan_deg":333.5903,"arg_perigee_deg":26.2167,"mean_anomaly_deg":334.1828,"bstar":0.0002612,"rev_number":10298,"period_min":95.225973954101,"perigee_km":491.54244404712,"apogee_km":567.48793528117,"semimajor_km":6907.6521896641,"source":"CELESTRAK","updated_at":"2026-09-23T09:00:21.097912Z"}}